Flag for France Weather past 2 weeks in Lille, France

Now
43 °F

Passing clouds.


Feels Like: 36 °F
Forecast: 38 / 45 °F
Wind: 12 mph from Northwest

Location: Lille Airport

Current Time: Jan 26, 2015 at 7:45:28 PM

Latest Report: Jan 26, 2015 at 7:00 PM


Visibility: N/A

Pressure: 30.21 "Hg

Humidity: 76%

Dew point: 36 °F

Location of LilleLocation

Historic Weather in Lille — Graph

°F

Lille temperature yesterday

Maximum temperature yesterday: 45 °F (at 3:30 PM)
Minimum temperature yesterday: 30 °F (at 4:00 AM)
Average temperature yesterday: 37 °F

Past Weeks' High & Low Weather Summary

 TemperatureHumidityPressure
High52 °F (Jan 15, 10:30 AM)100% (Jan 16, 9:30 PM)30.48 "Hg (Jan 16, 9:30 PM)
Low27 °F (Jan 23, 10:30 PM)61% (Jan 17, 3:00 PM)29.36 "Hg (Jan 15, 2:00 PM)
Average38 °F88%29.96 "Hg
* Reported Jan 11 7:00 PM — Jan 26 7:00 PM, Lille, Weather by CustomWeather, © 2014

Note: Actual official high and low records may vary slightly from our data, if they occured in-between our weather recording intervals... More about our weather records

Advertising

Lille weather history for previous 24 hours

 ConditionsComfort  
Time TempWeatherWind HumidityBarometerVisibility
7:00 PM
Jan 26
43 °FPassing clouds.12 mph76%30.21 "HgN/A
6:30 PM45 °FPassing clouds.13 mph71%30.18 "HgN/A
6:00 PM46 °FPartly cloudy.20 mph66%30.18 "HgN/A
5:30 PM46 °FPartly cloudy.14 mph87%30.15 "HgN/A
5:00 PM48 °FBroken clouds.12 mph87%30.15 "HgN/A
4:30 PM48 °FBroken clouds.10 mph87%30.12 "HgN/A
4:00 PM48 °FPartly sunny.12 mph94%30.12 "HgN/A
3:30 PM48 °FPartly sunny.16 mph94%30.12 "Hg6 mi
3:00 PM48 °FDrizzle. Low clouds.14 mph100%30.12 "Hg4 mi
2:30 PM48 °FPartly sunny.12 mph100%30.12 "Hg4 mi
2:00 PM48 °FDrizzle. Partly sunny.12 mph100%30.12 "HgN/A
1:30 PM48 °FDrizzle. Partly sunny.12 mph100%30.12 "Hg2 mi
1:00 PM48 °FLight rain. Partly sunny.12 mph100%30.12 "Hg1 mi
12:30 PM48 °FLight rain. Partly sunny.9 mph94%30.15 "Hg3 mi
12:00 PM48 °FPartly sunny.10 mph94%30.15 "HgN/A
11:30 AM46 °FPartly sunny.9 mph100%30.15 "HgN/A
11:00 AM46 °FLow clouds.8 mph100%30.18 "Hg5 mi
10:30 AM46 °FDrizzle. Low clouds.10 mph100%30.18 "Hg4 mi
10:00 AM46 °FDrizzle. Low clouds.9 mph100%30.18 "Hg3 mi
9:30 AM46 °FDrizzle. Low clouds.8 mph100%30.18 "Hg3 mi
9:00 AM46 °FDrizzle. Low clouds.10 mph93%30.18 "Hg4 mi
8:30 AM45 °FDrizzle. Low clouds.9 mph100%30.18 "Hg4 mi
8:00 AM45 °FLow clouds.8 mph100%30.18 "HgN/A
7:30 AM45 °FLow clouds.9 mph100%30.18 "HgN/A
7:00 AM45 °FLight rain. Low clouds.9 mph100%30.18 "HgN/A
6:30 AM45 °FLight rain. Low clouds.8 mph100%30.18 "HgN/A
6:00 AM45 °FDrizzle. Low clouds.8 mph100%30.21 "HgN/A
5:30 AM43 °FDrizzle. Low clouds.7 mph100%30.21 "Hg3 mi
5:00 AM43 °FLow clouds.6 mph100%30.21 "Hg6 mi
4:30 AM41 °FLow clouds.7 mph100%30.24 "Hg5 mi
4:00 AM41 °FLow clouds.8 mph100%30.24 "Hg5 mi
3:30 AM41 °FFog.6 mph100%30.27 "Hg2 mi
3:00 AM41 °FFog.7 mph100%30.27 "Hg1 mi
2:30 AM41 °FFog.7 mph100%30.27 "Hg3 mi
2:00 AM41 °FFog.7 mph93%30.30 "Hg2 mi
1:30 AM41 °FFog.7 mph93%30.30 "Hg2 mi
1:00 AM41 °FMostly cloudy.9 mph93%30.30 "HgN/A
12:30 AM41 °FOvercast.10 mph93%30.33 "HgN/A
12:00 AM41 °FOvercast.10 mph87%30.33 "HgN/A
11:30 PM
Jan 25
41 °FOvercast.12 mph87%30.33 "HgN/A
11:00 PM41 °FOvercast.12 mph87%30.33 "HgN/A
10:30 PM41 °FLight rain. Overcast.10 mph87%30.36 "HgN/A
10:00 PM41 °FOvercast.10 mph87%30.36 "HgN/A
9:30 PM41 °FOvercast.8 mph87%30.36 "HgN/A
9:00 PM41 °FMostly cloudy.9 mph87%30.39 "HgN/A
8:30 PM41 °FOvercast.7 mph87%30.39 "HgN/A
8:00 PM41 °FOvercast.7 mph87%30.39 "HgN/A
7:30 PM41 °FOvercast.8 mph87%30.39 "HgN/A
7:00 PM41 °FOvercast.7 mph87%30.39 "HgN/A
Weather by CustomWeather, © 2014

See weather overviewHow to use our weather pages